| time (UTC) | temp C | wind direction | speed KPH | gust KPH | rain 1hr cm | rain 24hr cm | rain mn cm | humidity % | barometer mb |
| 20260901093022 | 17 | 138 | 14.5 | 19.3 | 0.00 | 0.00 | 0.00 | 55 | 1014.9 |
| 20260901092522 | 17 | 139 | 14.5 | 22.5 | 0.00 | 0.00 | 0.00 | 50 | 1014.6 |
| 20260901092022 | 18 | 130 | 14.5 | 22.5 | 0.00 | 0.00 | 0.00 | 47 | 1014.6 |
| 20260901091522 | 18 | 119 | 16.1 | 22.5 | 0.00 | 0.00 | 0.00 | 47 | 1014.6 |
| 20260901091026 | 18 | 123 | 16.1 | 22.5 | 0.00 | 0.00 | 0.00 | 34 | 1014.8 |
| 20260901091022 | 18 | 121 | 16.1 | 22.5 | 0.00 | 0.00 | 0.00 | 36 | 1014.6 |
| 20260901090027 | 18 | 119 | 16.1 | 20.9 | 0.00 | 0.00 | 0.00 | 35 | 1014.8 |
| 20260901085522 | 18 | 116 | 16.1 | 19.3 | 0.00 | 0.00 | 0.00 | 31 | 1015.0 |
| 20260901085022 | 19 | 121 | 12.9 | 19.3 | 0.00 | 0.00 | 0.00 | 32 | 1014.9 |
| 20260901084522 | 19 | 125 | 9.7 | 17.7 | 0.00 | 0.00 | 0.00 | 26 | 1015.0 |
| 20260901084026 | 19 | 128 | 9.7 | 16.1 | 0.00 | 0.00 | 0.00 | 17 | 1015.0 |
| 20260901084022 | 19 | 130 | 11.3 | 16.1 | 0.00 | 0.00 | 0.00 | 20 | 1015.0 |
| 20260901083630 | 19 | 130 | 11.3 | 16.1 | 0.00 | 0.00 | 0.00 | 22 | 1014.9 |
| 20260901082519 | 19 | 128 | 11.3 | 16.1 | 0.00 | 0.00 | 0.00 | 21 | 1015.0 |
| 20260901082019 | 18 | 132 | 11.3 | 17.7 | 0.00 | 0.00 | 0.00 | 17 | 1014.9 |
| 20260901081519 | 18 | 122 | 12.9 | 17.7 | 0.00 | 0.00 | 0.00 | 26 | 1015.0 |
| 20260901081019 | 18 | 121 | 11.3 | 16.1 | 0.00 | 0.00 | 0.00 | 20 | 1015.1 |
| 20260901080519 | 18 | 128 | 11.3 | 16.1 | 0.00 | 0.00 | 0.00 | 23 | 1015.0 |
| 20260901080019 | 18 | 115 | 14.5 | 17.7 | 0.00 | 0.00 | 0.00 | 23 | 1015.1 |
| 20260901075520 | 18 | 121 | 12.9 | 17.7 | 0.00 | 0.00 | 0.00 | 24 | 1015.0 |
| 20260901075025 | 19 | 106 | 9.7 | 17.7 | 0.00 | 0.00 | 0.00 | 25 | 1015.1 |
| 20260901075020 | 19 | 115 | 11.3 | 14.5 | 0.00 | 0.00 | 0.00 | 24 | 1015.1 |
| 20260901074018 | 19 | 111 | 8.0 | 17.7 | 0.00 | 0.00 | 0.00 | 23 | 1015.2 |
| 20260901073517 | 19 | 123 | 11.3 | 17.7 | 0.00 | 0.00 | 0.00 | 24 | 1015.2 |
| 20260901073018 | 19 | 126 | 14.5 | 17.7 | 0.00 | 0.00 | 0.00 | 25 | 1015.2 |
| 20260901072517 | 19 | 117 | 12.9 | 17.7 | 0.00 | 0.00 | 0.00 | 28 | 1015.2 |
| 20260901072017 | 19 | 103 | 9.7 | 16.1 | 0.00 | 0.00 | 0.00 | 39 | 1015.2 |
| 20260901071516 | 19 | 94 | 8.0 | 12.9 | 0.00 | 0.00 | 0.00 | 47 | 1015.1 |
| 20260901071016 | 19 | 90 | 8.0 | 12.9 | 0.00 | 0.00 | 0.00 | 53 | 1015.1 |
| 20260901070515 | 20 | 93 | 11.3 | 14.5 | 0.00 | 0.00 | 0.00 | 55 | 1015.1 |
| 20260901070017 | 20 | 95 | 11.3 | 14.5 | 0.00 | 0.00 | 0.00 | 54 | 1015.1 |
| 20260901070013 | 20 | 92 | 9.7 | 12.9 | 0.00 | 0.00 | 0.00 | 54 | 1015.1 |
| 20260901065013 | 20 | 101 | 8.0 | 12.9 | 0.00 | 0.00 | 0.00 | 46 | 1015.0 |
| 20260901064511 | 20 | 105 | 8.0 | 12.9 | 0.00 | 0.00 | 0.00 | 48 | 1015.0 |
| 20260901064012 | 20 | 110 | 9.7 | 14.5 | 0.00 | 0.00 | 0.00 | 43 | 1015.0 |
| 20260901063512 | 20 | 107 | 9.7 | 12.9 | 0.00 | 0.00 | 0.00 | 40 | 1014.9 |
| 20260901063508 | 20 | 109 | 9.7 | 14.5 | 0.00 | 0.00 | 0.00 | 41 | 1014.9 |
| 20260901062509 | 20 | 105 | 11.3 | 14.5 | 0.00 | 0.00 | 0.00 | 44 | 1014.9 |
| 20260901062007 | 20 | 104 | 9.7 | 14.5 | 0.00 | 0.00 | 0.00 | 42 | 1014.9 |
| 20260901061507 | 20 | 101 | 6.4 | 14.5 | 0.00 | 0.00 | 0.00 | 38 | 1014.8 |
| 20260901061006 | 20 | 112 | 6.4 | 11.3 | 0.00 | 0.00 | 0.00 | 39 | 1014.8 |
| 20260901060509 | 21 | 134 | 6.4 | 11.3 | 0.00 | 0.00 | 0.00 | 29 | 1014.8 |
| 20260901060505 | 21 | 150 | 8.0 | 11.3 | 0.00 | 0.00 | 0.00 | 27 | 1014.9 |
| 20260901055502 | 21 | 156 | 8.0 | 11.3 | 0.00 | 0.00 | 0.00 | 26 | 1014.8 |
| 20260901055007 | 22 | 159 | 11.3 | 14.5 | 0.00 | 0.00 | 0.00 | 9 | 1014.6 |
| 20260901055002 | 22 | 159 | 9.7 | 14.5 | 0.00 | 0.00 | 0.00 | 24 | 1014.8 |
| 20260901054003 | 22 | 192 | 11.3 | 16.1 | 0.00 | 0.00 | 0.00 | 1 | 1014.6 |
| 20260901053506 | 22 | 190 | 9.7 | 12.9 | 0.00 | 0.00 | 0.00 | 1 | 1014.6 |
| 20260901053502 | 22 | 184 | 11.3 | 16.1 | 0.00 | 0.00 | 0.00 | 2 | 1014.5 |
| 20260901052503 | 21 | 194 | 8.0 | 11.3 | 0.00 | 0.00 | 0.00 | 2 | 1014.6 |
| 20260901052004 | 21 | 164 | 6.4 | 8.0 | 0.00 | 0.00 | 0.00 | 4 | 1014.8 |
| 20260901051503 | 21 | 158 | 4.8 | 9.7 | 0.00 | 0.00 | 0.00 | 5 | 1014.8 |
| 20260901051002 | 22 | 152 | 6.4 | 9.7 | 0.00 | 0.00 | 0.00 | 14 | 1014.8 |
| 20260901050502 | 22 | 167 | 4.8 | 8.0 | 0.00 | 0.00 | 0.00 | 6 | 1014.6 |
| 20260901050003 | 22 | 180 | 6.4 | 9.7 | 0.00 | 0.00 | 0.00 | 3 | 1014.6 |
| 20260901045507 | 22 | 175 | 9.7 | 11.3 | 0.00 | 0.00 | 0.00 | 6 | 1014.6 |
| 20260901045503 | 22 | 178 | 6.4 | 11.3 | 0.00 | 0.00 | 0.00 | 5 | 1014.6 |
| 20260901045111 | 22 | 188 | 11.3 | 11.3 | 0.00 | 0.00 | 0.00 | 2 | 1014.6 |
| 20260901044002 | 22 | 188 | 11.3 | 14.5 | 0.00 | 0.00 | 0.00 | 2 | 1014.6 |
| 20260901043502 | 22 | 188 | 11.3 | 14.5 | 0.00 | 0.00 | 0.00 | 1 | 1014.6 |
| 20260901043003 | 22 | 201 | 11.3 | 14.5 | 0.00 | 0.00 | 0.00 | 1 | 1014.5 |
| 20260901042503 | 23 | 221 | 11.3 | 14.5 | 0.00 | 0.00 | 0.00 | 1 | 1014.4 |
| 20260901042007 | 23 | 211 | 11.3 | 14.5 | 0.00 | 0.00 | 0.00 | 1 | 1014.3 |
| 20260901042003 | 23 | 215 | 11.3 | 14.5 | 0.00 | 0.00 | 0.00 | 1 | 1014.4 |
| 20260901041002 | 23 | 216 | 11.3 | 14.5 | 0.00 | 0.00 | 0.00 | 1 | 1014.3 |
| 20260901040502 | 23 | 210 | 11.3 | 14.5 | 0.00 | 0.00 | 0.00 | 1 | 1014.3 |
| 20260901040003 | 22 | 211 | 9.7 | 12.9 | 0.00 | 0.00 | 0.00 | 1 | 1014.2 |
| 20260901035502 | 22 | 215 | 9.7 | 11.3 | 0.00 | 0.00 | 0.00 | 1 | 1014.1 |
| 20260901035002 | 22 | 225 | 9.7 | 11.3 | 0.00 | 0.00 | 0.00 | 1 | 1014.1 |
| 20260901034502 | 22 | 221 | 9.7 | 11.3 | 0.00 | 0.00 | 0.00 | 1 | 1014.1 |
| 20260901034003 | 22 | 214 | 9.7 | 11.3 | 0.00 | 0.00 | 0.00 | 1 | 1014.1 |
| 20260901033508 | 22 | 219 | 8.0 | 11.3 | 0.00 | 0.00 | 0.00 | 3 | 1013.8 |
| 20260901033502 | 22 | 219 | 9.7 | 11.3 | 0.00 | 0.00 | 0.00 | 1 | 1013.9 |
| 20260901032502 | 22 | 213 | 9.7 | 11.3 | 0.00 | 0.00 | 0.00 | 8 | 1013.9 |
| 20260901032006 | 22 | 205 | 9.7 | 12.9 | 0.00 | 0.00 | 0.00 | 6 | 1013.9 |
| 20260901032002 | 22 | 211 | 9.7 | 12.9 | 0.00 | 0.00 | 0.00 | 7 | 1013.9 |
| 20260901031003 | 22 | 213 | 9.7 | 11.3 | 0.00 | 0.00 | 0.00 | 5 | 1013.8 |
| 20260901030502 | 23 | 224 | 8.0 | 11.3 | 0.00 | 0.00 | 0.00 | 4 | 1013.8 |
| 20260901030002 | 23 | 227 | 8.0 | 12.9 | 0.00 | 0.00 | 0.00 | 4 | 1013.8 |
| 20260901025502 | 22 | 238 | 9.7 | 14.5 | 0.00 | 0.00 | 0.00 | 2 | 1013.8 |
| 20260901025006 | 22 | 248 | 11.3 | 16.1 | 0.00 | 0.00 | 0.00 | 4 | 1013.7 |
| 20260901025002 | 22 | 261 | 9.7 | 14.5 | 0.00 | 0.00 | 0.00 | 2 | 1013.7 |
| 20260901024002 | 22 | 228 | 12.9 | 16.1 | 0.00 | 0.00 | 0.00 | 3 | 1013.7 |
| 20260901023506 | 22 | 252 | 12.9 | 17.7 | 0.00 | 0.00 | 0.00 | 10 | 1013.8 |
| 20260901023502 | 22 | 252 | 12.9 | 17.7 | 0.00 | 0.00 | 0.00 | 5 | 1013.7 |
| 20260901023111 | 22 | 241 | 12.9 | 17.7 | 0.00 | 0.00 | 0.00 | 10 | 1013.7 |
| 20260901022002 | 22 | 229 | 11.3 | 17.7 | 0.00 | 0.00 | 0.00 | 10 | 1013.7 |
| 20260901021507 | 22 | 223 | 11.3 | 14.5 | 0.00 | 0.00 | 0.00 | 16 | 1013.7 |
| 20260901021502 | 22 | 230 | 11.3 | 12.9 | 0.00 | 0.00 | 0.00 | 13 | 1013.7 |
| 20260901021110 | 22 | 221 | 11.3 | 16.1 | 0.00 | 0.00 | 0.00 | 18 | 1013.7 |
| 20260901020609 | 22 | 215 | 11.3 | 16.1 | 0.00 | 0.00 | 0.00 | 16 | 1013.7 |
| 20260901015502 | 22 | 219 | 12.9 | 16.1 | 0.00 | 0.00 | 0.00 | 28 | 1013.7 |
| 20260901015002 | 22 | 204 | 12.9 | 16.1 | 0.00 | 0.00 | 0.00 | 21 | 1013.7 |
| 20260901014500 | 22 | 197 | 12.9 | 17.7 | 0.00 | 0.00 | 0.00 | 24 | 1013.7 |
| 20260901014000 | 22 | 202 | 11.3 | 17.7 | 0.00 | 0.00 | 0.00 | 17 | 1013.7 |
| 20260901013500 | 22 | 219 | 11.3 | 16.1 | 0.00 | 0.00 | 0.00 | 24 | 1013.7 |
| 20260901013000 | 22 | 205 | 11.3 | 16.1 | 0.00 | 0.00 | 0.00 | 18 | 1013.7 |
| 20260901012459 | 22 | 203 | 11.3 | 16.1 | 0.00 | 0.00 | 0.00 | 28 | 1013.7 |
| 20260901012000 | 22 | 199 | 12.9 | 16.1 | 0.00 | 0.00 | 0.00 | 31 | 1013.7 |
| 20260901011500 | 22 | 202 | 12.9 | 16.1 | 0.00 | 0.00 | 0.00 | 29 | 1013.7 |
| 20260901011001 | 22 | 197 | 11.3 | 16.1 | 0.00 | 0.00 | 0.00 | 32 | 1013.7 |
| 20260901010501 | 22 | 200 | 11.3 | 14.5 | 0.00 | 0.00 | 0.00 | 39 | 1013.8 |
| 20260901005959 | 22 | 224 | 11.3 | 16.1 | 0.00 | 0.00 | 0.00 | 41 | 1013.8 |
| 20260901005500 | 22 | 206 | 11.3 | 16.1 | 0.00 | 0.00 | 0.00 | 35 | 1013.8 |
| 20260901005000 | 22 | 200 | 11.3 | 17.7 | 0.00 | 0.00 | 0.00 | 39 | 1013.8 |
| 20260901004500 | 22 | 215 | 11.3 | 17.7 | 0.00 | 0.00 | 0.00 | 32 | 1013.8 |
| 20260901004000 | 23 | 221 | 11.3 | 16.1 | 0.00 | 0.00 | 0.00 | 30 | 1013.8 |
| 20260901003500 | 22 | 203 | 11.3 | 16.1 | 0.00 | 0.00 | 0.00 | 34 | 1013.9 |
| 20260901002959 | 22 | 203 | 11.3 | 14.5 | 0.00 | 0.00 | 0.00 | 27 | 1013.8 |
| 20260901002506 | 22 | 216 | 11.3 | 16.1 | 0.00 | 0.00 | 0.00 | 39 | 1013.9 |
| 20260901002501 | 22 | 232 | 11.3 | 14.5 | 0.00 | 0.00 | 0.00 | 40 | 1013.8 |
| 20260901001500 | 22 | 219 | 11.3 | 16.1 | 0.00 | 0.00 | 0.00 | 49 | 1013.9 |
| 20260901000959 | 22 | 214 | 12.9 | 17.7 | 0.00 | 0.00 | 0.00 | 43 | 1013.9 |
| 20260901000505 | 22 | 198 | 11.3 | 17.7 | 0.00 | 0.00 | 0.00 | 37 | 1014.0 |
| 20260901000500 | 22 | 216 | 12.9 | 17.7 | 0.00 | 0.00 | 0.00 | 52 | 1014.0 |
| 20260901000108 | 22 | 213 | 11.3 | 17.7 | 0.00 | 0.00 | 0.00 | 43 | 1014.0 |
| 20260831234959 | 22 | 216 | 11.3 | 17.7 | 0.00 | 0.00 | 0.00 | 53 | 1013.9 |
| 20260831234459 | 23 | 234 | 11.3 | 16.1 | 0.00 | 0.00 | 0.00 | 59 | 1013.9 |
| 20260831234000 | 23 | 188 | 9.7 | 16.1 | 0.00 | 0.00 | 0.00 | 48 | 1014.0 |
| 20260831233505 | 23 | 216 | 9.7 | 16.1 | 0.00 | 0.00 | 0.00 | 51 | 1014.0 |
| 20260831233500 | 23 | 202 | 9.7 | 16.1 | 0.00 | 0.00 | 0.00 | 51 | 1014.0 |
| 20260831232500 | 23 | 177 | 9.7 | 16.1 | 0.00 | 0.00 | 0.00 | 56 | 1014.0 |
| 20260831232000 | 23 | 189 | 9.7 | 16.1 | 0.00 | 0.00 | 0.00 | 50 | 1014.0 |
| 20260831231500 | 23 | 196 | 9.7 | 16.1 | 0.00 | 0.00 | 0.00 | 50 | 1014.0 |
| 20260831231003 | 23 | 185 | 9.7 | 16.1 | 0.00 | 0.00 | 0.00 | 58 | 1014.0 |
| 20260831230959 | 23 | 171 | 9.7 | 14.5 | 0.00 | 0.00 | 0.00 | 55 | 1014.1 |
| 20260831225957 | 22 | 183 | 9.7 | 14.5 | 0.00 | 0.00 | 0.00 | 45 | 1014.0 |
| 20260831225457 | 23 | 184 | 8.0 | 16.1 | 0.00 | 0.00 | 0.00 | 60 | 1014.1 |
| 20260831225000 | 23 | 167 | 9.7 | 16.1 | 0.00 | 0.00 | 0.00 | 60 | 1014.1 |
| 20260831224955 | 23 | 180 | 9.7 | 16.1 | 0.00 | 0.00 | 0.00 | 59 | 1014.1 |
| 20260831223955 | 23 | 189 | 9.7 | 16.1 | 0.00 | 0.00 | 0.00 | 68 | 1014.2 |
| 20260831223455 | 23 | 161 | 9.7 | 16.1 | 0.00 | 0.00 | 0.00 | 68 | 1014.1 |
| 20260831222956 | 23 | 168 | 9.7 | 16.1 | 0.00 | 0.00 | 0.00 | 71 | 1014.2 |
| 20260831222456 | 22 | 207 | 9.7 | 16.1 | 0.00 | 0.00 | 0.00 | 69 | 1014.2 |
| 20260831221956 | 22 | 193 | 8.0 | 16.1 | 0.00 | 0.00 | 0.00 | 71 | 1014.3 |
| 20260831221456 | 22 | 166 | 9.7 | 16.1 | 0.00 | 0.00 | 0.00 | 71 | 1014.4 |
| 20260831220955 | 22 | 204 | 9.7 | 16.1 | 0.00 | 0.00 | 0.00 | 70 | 1014.4 |
| 20260831220455 | 22 | 225 | 9.7 | 16.1 | 0.00 | 0.00 | 0.00 | 68 | 1014.5 |
| 20260831215955 | 22 | 211 | 9.7 | 17.7 | 0.00 | 0.00 | 0.00 | 71 | 1014.5 |
| 20260831215500 | 23 | 193 | 11.3 | 17.7 | 0.00 | 0.00 | 0.00 | 70 | 1014.6 |
| 20260831215456 | 22 | 208 | 11.3 | 17.7 | 0.00 | 0.00 | 0.00 | 71 | 1014.6 |
| 20260831214456 | 23 | 190 | 11.3 | 17.7 | 0.00 | 0.00 | 0.00 | 71 | 1014.6 |
| 20260831213956 | 23 | 200 | 11.3 | 17.7 | 0.00 | 0.00 | 0.00 | 70 | 1014.8 |
| 20260831213456 | 23 | 173 | 9.7 | 19.3 | 0.00 | 0.00 | 0.00 | 70 | 1014.6 |
| 20260831212959 | 23 | 178 | 8.0 | 19.3 | 0.00 | 0.00 | 0.00 | 70 | 1014.6 |
| 20260831212955 | 23 | 209 | 6.4 | 12.9 | 0.00 | 0.00 | 0.00 | 66 | 1014.8 |
| 20260831211956 | 23 | 168 | 8.0 | 12.9 | 0.00 | 0.00 | 0.00 | 70 | 1014.6 |
| 20260831211952 | 22 | 180 | 8.0 | 17.7 | 0.00 | 0.00 | 0.00 | 74 | 1014.8 |
| 20260831210952 | 22 | 197 | 9.7 | 17.7 | 0.00 | 0.00 | 0.00 | 75 | 1014.9 |
| 20260831210454 | 22 | 196 | 9.7 | 19.3 | 0.00 | 0.00 | 0.00 | 74 | 1014.9 |
| 20260831210450 | 22 | 210 | 9.7 | 19.3 | 0.00 | 0.00 | 0.00 | 75 | 1014.9 |
| 20260831205449 | 22 | 204 | 8.0 | 17.7 | 0.00 | 0.00 | 0.00 | 75 | 1014.9 |
| 20260831204949 | 22 | 215 | 8.0 | 17.7 | 0.00 | 0.00 | 0.00 | 74 | 1014.9 |
| 20260831204449 | 21 | 232 | 9.7 | 17.7 | 0.00 | 0.00 | 0.00 | 76 | 1014.9 |
| 20260831203947 | 21 | 163 | 9.7 | 16.1 | 0.00 | 0.00 | 0.00 | 76 | 1014.9 |
| 20260831203447 | 22 | 206 | 9.7 | 16.1 | 0.00 | 0.00 | 0.00 | 77 | 1014.9 |
| 20260831202947 | 21 | 192 | 8.0 | 16.1 | 0.00 | 0.00 | 0.00 | 78 | 1015.0 |
| 20260831202447 | 21 | 160 | 8.0 | 16.1 | 0.00 | 0.00 | 0.00 | 79 | 1014.9 |
| 20260831201947 | 22 | 215 | 9.7 | 16.1 | 0.00 | 0.00 | 0.00 | 75 | 1015.0 |
| 20260831201445 | 22 | 174 | 9.7 | 16.1 | 0.00 | 0.00 | 0.00 | 76 | 1015.0 |
| 20260831200945 | 22 | 216 | 9.7 | 17.7 | 0.00 | 0.00 | 0.00 | 77 | 1015.0 |
| 20260831200446 | 22 | 188 | 9.7 | 17.7 | 0.00 | 0.00 | 0.00 | 76 | 1015.0 |
| 20260831195945 | 22 | 177 | 9.7 | 16.1 | 0.00 | 0.00 | 0.00 | 77 | 1015.0 |
| 20260831195446 | 22 | 202 | 9.7 | 16.1 | 0.00 | 0.00 | 0.00 | 77 | 1015.1 |
| 20260831194947 | 22 | 175 | 9.7 | 17.7 | 0.00 | 0.00 | 0.00 | 77 | 1015.1 |
| 20260831194443 | 22 | 202 | 9.7 | 17.7 | 0.00 | 0.00 | 0.00 | 77 | 1015.2 |
| 20260831193943 | 22 | 171 | 9.7 | 16.1 | 0.00 | 0.00 | 0.00 | 75 | 1015.2 |
| 20260831193445 | 22 | 175 | 8.0 | 14.5 | 0.00 | 0.00 | 0.00 | 77 | 1015.2 |
| 20260831192944 | 22 | 209 | 9.7 | 16.1 | 0.00 | 0.00 | 0.00 | 77 | 1015.3 |
| 20260831192444 | 22 | 182 | 9.7 | 16.1 | 0.00 | 0.00 | 0.00 | 77 | 1015.3 |
| 20260831191942 | 22 | 173 | 11.3 | 17.7 | 0.00 | 0.00 | 0.00 | 78 | 1015.3 |
| 20260831191442 | 21 | 194 | 9.7 | 17.7 | 0.00 | 0.00 | 0.00 | 78 | 1015.4 |
| 20260831190942 | 22 | 188 | 8.0 | 14.5 | 0.00 | 0.00 | 0.00 | 77 | 1015.4 |
| 20260831190446 | 21 | 182 | 6.4 | 14.5 | 0.00 | 0.00 | 0.00 | 80 | 1015.3 |
| 20260831190442 | 22 | 184 | 6.4 | 12.9 | 0.00 | 0.00 | 0.00 | 80 | 1015.4 |
| 20260831185442 | 21 | 189 | 6.4 | 14.5 | 0.00 | 0.00 | 0.00 | 80 | 1015.4 |
| 20260831184942 | 21 | 207 | 6.4 | 14.5 | 0.00 | 0.00 | 0.00 | 78 | 1015.3 |
| 20260831184442 | 21 | 171 | 8.0 | 14.5 | 0.00 | 0.00 | 0.00 | 79 | 1015.4 |
| 20260831183942 | 22 | 218 | 8.0 | 14.5 | 0.00 | 0.00 | 0.00 | 78 | 1015.3 |
| 20260831183442 | 22 | 194 | 8.0 | 14.5 | 0.00 | 0.00 | 0.00 | 77 | 1015.3 |
| 20260831182945 | 22 | 136 | 6.4 | 12.9 | 0.00 | 0.00 | 0.00 | 75 | 1015.3 |
| 20260831182939 | 22 | 153 | 8.0 | 12.9 | 0.00 | 0.00 | 0.00 | 76 | 1015.3 |
| 20260831182546 | 22 | 139 | 4.8 | 11.3 | 0.00 | 0.00 | 0.00 | 77 | 1015.4 |
| 20260831182047 | 22 | 159 | 4.8 | 12.9 | 0.00 | 0.00 | 0.00 | 80 | 1015.4 |
| 20260831180939 | 21 | 163 | 8.0 | 14.5 | 0.00 | 0.00 | 0.00 | 80 | 1015.4 |
| 20260831180444 | 21 | 157 | 6.4 | 12.9 | 0.00 | 0.00 | 0.00 | 79 | 1015.3 |
| 20260831180439 | 21 | 128 | 6.4 | 14.5 | 0.00 | 0.00 | 0.00 | 80 | 1015.3 |
| 20260831175438 | 21 | 150 | 6.4 | 12.9 | 0.00 | 0.00 | 0.00 | 80 | 1015.2 |
| 20260831174939 | 21 | 119 | 6.4 | 12.9 | 0.00 | 0.00 | 0.00 | 81 | 1015.3 |
| 20260831174439 | 21 | 116 | 6.4 | 12.9 | 0.00 | 0.00 | 0.00 | 80 | 1015.2 |
| 20260831173937 | 21 | 102 | 6.4 | 14.5 | 0.00 | 0.00 | 0.00 | 80 | 1015.2 |
| 20260831173443 | 21 | 103 | 6.4 | 12.9 | 0.00 | 0.00 | 0.00 | 82 | 1015.2 |
| 20260831173437 | 21 | 126 | 6.4 | 14.5 | 0.00 | 0.00 | 0.00 | 81 | 1015.1 |
| 20260831172437 | 21 | 169 | 4.8 | 12.9 | 0.00 | 0.00 | 0.00 | 82 | 1015.1 |
| 20260831171936 | 21 | 116 | 3.2 | 12.9 | 0.00 | 0.00 | 0.00 | 82 | 1015.2 |
| 20260831171442 | 21 | 171 | 4.8 | 11.3 | 0.00 | 0.00 | 0.00 | 82 | 1015.2 |
| 20260831171435 | 21 | 209 | 4.8 | 11.3 | 0.00 | 0.00 | 0.00 | 81 | 1015.2 |
| 20260831170433 | 21 | 193 | 4.8 | 11.3 | 0.00 | 0.00 | 0.00 | 82 | 1015.1 |
| 20260831165932 | 21 | 138 | 6.4 | 12.9 | 0.00 | 0.00 | 0.00 | 82 | 1015.0 |
| 20260831165432 | 20 | 167 | 8.0 | 14.5 | 0.00 | 0.00 | 0.00 | 82 | 1015.0 |
| 20260831164933 | 20 | 174 | 6.4 | 14.5 | 0.00 | 0.00 | 0.00 | 82 | 1015.0 |
| 20260831164434 | 20 | 181 | 6.4 | 12.9 | 0.00 | 0.00 | 0.00 | 81 | 1014.9 |
| 20260831163932 | 20 | 173 | 6.4 | 12.9 | 0.00 | 0.00 | 0.00 | 81 | 1014.8 |
| 20260831163432 | 20 | 125 | 8.0 | 12.9 | 0.00 | 0.00 | 0.00 | 81 | 1014.8 |
| 20260831162933 | 20 | 139 | 8.0 | 12.9 | 0.00 | 0.00 | 0.00 | 80 | 1014.8 |
| 20260831162431 | 20 | 150 | 9.7 | 12.9 | 0.00 | 0.00 | 0.00 | 79 | 1014.6 |
| 20260831161931 | 20 | 126 | 8.0 | 14.5 | 0.00 | 0.00 | 0.00 | 79 | 1014.8 |
| 20260831161431 | 20 | 136 | 6.4 | 14.5 | 0.00 | 0.00 | 0.00 | 79 | 1014.5 |
| 20260831160930 | 20 | 97 | 8.0 | 12.9 | 0.00 | 0.00 | 0.00 | 80 | 1014.6 |
| 20260831160431 | 20 | 98 | 8.0 | 12.9 | 0.00 | 0.00 | 0.00 | 80 | 1014.5 |
| 20260831155934 | 20 | 109 | 6.4 | 12.9 | 0.00 | 0.00 | 0.00 | 79 | 1014.5 |
| 20260831155930 | 20 | 116 | 8.0 | 12.9 | 0.00 | 0.00 | 0.00 | 80 | 1014.5 |
| 20260831155538 | 20 | 105 | 8.0 | 12.9 | 0.00 | 0.00 | 0.00 | 79 | 1014.5 |
| 20260831154435 | 20 | 123 | 8.0 | 12.9 | 0.00 | 0.00 | 0.00 | 79 | 1014.5 |
| 20260831154431 | 20 | 147 | 8.0 | 12.9 | 0.00 | 0.00 | 0.00 | 79 | 1014.6 |
| 20260831154039 | 20 | 93 | 6.4 | 12.9 | 0.00 | 0.00 | 0.00 | 79 | 1014.5 |
| 20260831152930 | 20 | 96 | 8.0 | 12.9 | 0.00 | 0.00 | 0.00 | 78 | 1014.5 |
| 20260831152431 | 20 | 80 | 8.0 | 12.9 | 0.00 | 0.00 | 0.00 | 77 | 1014.5 |
| 20260831151930 | 20 | 121 | 6.4 | 11.3 | 0.00 | 0.00 | 0.00 | 76 | 1014.4 |
| 20260831151431 | 20 | 96 | 8.0 | 14.5 | 0.00 | 0.00 | 0.00 | 76 | 1014.3 |
| 20260831150930 | 19 | 44 | 9.7 | 14.5 | 0.00 | 0.00 | 0.00 | 78 | 1014.3 |
| 20260831150430 | 19 | 73 | 9.7 | 14.5 | 0.00 | 0.00 | 0.00 | 77 | 1014.2 |
| 20260831145931 | 19 | 85 | 6.4 | 12.9 | 0.00 | 0.00 | 0.00 | 79 | 1014.1 |
| 20260831145430 | 19 | 75 | 6.4 | 9.7 | 0.00 | 0.00 | 0.00 | 81 | 1014.2 |
| 20260831144930 | 19 | 84 | 4.8 | 11.3 | 0.00 | 0.00 | 0.00 | 79 | 1014.2 |
| 20260831144430 | 19 | 75 | 4.8 | 11.3 | 0.00 | 0.00 | 0.00 | 77 | 1014.2 |
| 20260831143928 | 19 | 74 | 4.8 | 11.3 | 0.00 | 0.00 | 0.00 | 77 | 1014.2 |
| 20260831143427 | 20 | 84 | 6.4 | 11.3 | 0.00 | 0.00 | 0.00 | 74 | 1014.2 |
| 20260831142926 | 20 | 96 | 4.8 | 11.3 | 0.00 | 0.00 | 0.00 | 73 | 1014.1 |
| 20260831142426 | 19 | 104 | 3.2 | 6.4 | 0.00 | 0.00 | 0.00 | 74 | 1014.0 |
| 20260831141928 | 19 | 104 | 3.2 | 6.4 | 0.00 | 0.00 | 0.00 | 74 | 1013.9 |
| 20260831141924 | 19 | 104 | 3.2 | 6.4 | 0.00 | 0.00 | 0.00 | 74 | 1013.9 |
| 20260831140928 | 19 | 104 | 6.4 | 11.3 | 0.00 | 0.00 | 0.00 | 73 | 1013.8 |
| 20260831140924 | 19 | 104 | 3.2 | 6.4 | 0.00 | 0.00 | 0.00 | 73 | 1013.8 |
| 20260831135923 | 19 | 104 | 6.4 | 11.3 | 0.00 | 0.00 | 0.00 | 72 | 1013.6 |
| 20260831135422 | 18 | 104 | 4.8 | 11.3 | 0.00 | 0.00 | 0.00 | 74 | 1013.7 |
| 20260831134922 | 18 | 104 | 4.8 | 9.7 | 0.00 | 0.00 | 0.00 | 75 | 1013.6 |
| 20260831134422 | 18 | 104 | 4.8 | 9.7 | 0.00 | 0.00 | 0.00 | 72 | 1013.5 |
| 20260831133922 | 18 | 104 | 6.4 | 9.7 | 0.00 | 0.00 | 0.00 | 74 | 1013.5 |
| 20260831133422 | 18 | 104 | 8.0 | 9.7 | 0.00 | 0.00 | 0.00 | 72 | 1013.4 |
| 20260831132920 | 18 | 104 | 4.8 | 9.7 | 0.00 | 0.00 | 0.00 | 75 | 1013.4 |
| 20260831132420 | 18 | 104 | 4.8 | 6.4 | 0.00 | 0.00 | 0.00 | 78 | 1013.4 |
| 20260831132029 | 17 | 104 | 3.2 | 9.7 | 0.00 | 0.00 | 0.00 | 82 | 1013.4 |
| 20260831131925 | 17 | 104 | 4.8 | 9.7 | 0.00 | 0.00 | 0.00 | 79 | 1013.4 |
| 20260831131919 | 17 | 104 | 4.8 | 9.7 | 0.00 | 0.00 | 0.00 | 79 | 1013.4 |
| 20260831131029 | 17 | 104 | 1.6 | 4.8 | 0.00 | 0.00 | 0.00 | 86 | 1013.4 |
| 20260831125920 | 17 | 104 | 1.6 | 4.8 | 0.00 | 0.00 | 0.00 | 86 | 1013.2 |
| 20260831125420 | 17 | 104 | 4.8 | 12.9 | 0.00 | 0.00 | 0.00 | 88 | 1013.2 |
| 20260831124920 | 17 | 104 | 6.4 | 12.9 | 0.00 | 0.00 | 0.00 | 87 | 1013.5 |
| 20260831124421 | 17 | 96 | 8.0 | 12.9 | 0.00 | 0.00 | 0.00 | 87 | 1013.4 |
| 20260831123924 | 17 | 98 | 8.0 | 12.9 | 0.00 | 0.00 | 0.00 | 88 | 1013.2 |
| 20260831123918 | 17 | 98 | 9.7 | 14.5 | 0.00 | 0.00 | 0.00 | 88 | 1013.4 |
| 20260831122918 | 17 | 92 | 9.7 | 14.5 | 0.00 | 0.00 | 0.00 | 88 | 1013.2 |
| 20260831122418 | 17 | 98 | 11.3 | 14.5 | 0.00 | 0.00 | 0.00 | 87 | 1013.2 |
| 20260831121918 | 17 | 105 | 12.9 | 14.5 | 0.00 | 0.00 | 0.00 | 87 | 1013.2 |
| 20260831121418 | 17 | 111 | 12.9 | 14.5 | 0.00 | 0.00 | 0.00 | 85 | 1013.2 |
| 20260831120918 | 17 | 111 | 12.9 | 14.5 | 0.00 | 0.00 | 0.00 | 83 | 1013.1 |
| 20260831120418 | 17 | 113 | 12.9 | 14.5 | 0.00 | 0.00 | 0.00 | 79 | 1013.1 |
| 20260831115918 | 17 | 114 | 11.3 | 14.5 | 0.00 | 0.00 | 0.00 | 74 | 1013.0 |
| 20260831115418 | 17 | 119 | 11.3 | 12.9 | 0.00 | 0.00 | 0.00 | 72 | 1013.1 |
| 20260831114917 | 17 | 117 | 12.9 | 14.5 | 0.00 | 0.00 | 0.00 | 72 | 1013.1 |
| 20260831114415 | 17 | 117 | 11.3 | 14.5 | 0.00 | 0.00 | 0.00 | 71 | 1013.1 |
| 20260831113916 | 17 | 122 | 11.3 | 14.5 | 0.00 | 0.00 | 0.00 | 69 | 1013.0 |
| 20260831113416 | 17 | 120 | 11.3 | 14.5 | 0.00 | 0.00 | 0.00 | 70 | 1013.1 |
| 20260831112916 | 17 | 118 | 11.3 | 14.5 | 0.00 | 0.00 | 0.00 | 72 | 1013.1 |
| 20260831112415 | 17 | 111 | 11.3 | 14.5 | 0.00 | 0.00 | 0.00 | 72 | 1013.1 |
| 20260831111916 | 17 | 119 | 9.7 | 12.9 | 0.00 | 0.00 | 0.00 | 71 | 1013.1 |
| 20260831111414 | 17 | 111 | 11.3 | 16.1 | 0.00 | 0.00 | 0.00 | 72 | 1013.2 |
| 20260831110914 | 17 | 107 | 9.7 | 16.1 | 0.00 | 0.00 | 0.00 | 72 | 1013.4 |
| 20260831110414 | 18 | 122 | 9.7 | 16.1 | 0.00 | 0.00 | 0.00 | 72 | 1013.4 |
| 20260831105912 | 18 | 111 | 12.9 | 16.1 | 0.00 | 0.00 | 0.00 | 72 | 1013.4 |
| 20260831105410 | 18 | 105 | 11.3 | 14.5 | 0.00 | 0.00 | 0.00 | 73 | 1013.4 |
| 20260831104910 | 18 | 99 | 11.3 | 16.1 | 0.00 | 0.00 | 0.00 | 74 | 1013.4 |
| 20260831104409 | 18 | 101 | 11.3 | 16.1 | 0.00 | 0.00 | 0.00 | 74 | 1013.4 |
| 20260831103909 | 18 | 96 | 12.9 | 16.1 | 0.00 | 0.00 | 0.00 | 74 | 1013.2 |
| 20260831103408 | 18 | 95 | 12.9 | 16.1 | 0.00 | 0.00 | 0.00 | 74 | 1013.2 |
| 20260831102911 | 18 | 85 | 14.5 | 17.7 | 0.00 | 0.00 | 0.00 | 72 | 1013.4 |
| 20260831102907 | 18 | 86 | 12.9 | 17.7 | 0.00 | 0.00 | 0.00 | 73 | 1013.2 |
| 20260831101911 | 18 | 88 | 14.5 | 19.3 | 0.00 | 0.00 | 0.00 | 71 | 1013.2 |
| 20260831101907 | 18 | 86 | 14.5 | 19.3 | 0.00 | 0.00 | 0.00 | 72 | 1013.2 |
| 20260831100905 | 18 | 86 | 11.3 | 19.3 | 0.00 | 0.00 | 0.00 | 71 | 1013.4 |
| 20260831100409 | 18 | 45 | 8.0 | 14.5 | 0.00 | 0.00 | 0.00 | 69 | 1013.4 |
| 20260831100405 | 18 | 85 | 8.0 | 14.5 | 0.00 | 0.00 | 0.00 | 70 | 1013.4 |
| 20260831095406 | 18 | 53 | 8.0 | 14.5 | 0.00 | 0.00 | 0.00 | 68 | 1013.4 |
| 20260831094907 | 19 | 62 | 6.4 | 14.5 | 0.00 | 0.00 | 0.00 | 67 | 1013.2 |
| 20260831094407 | 19 | 65 | 3.2 | 8.0 | 0.00 | 0.00 | 0.00 | 67 | 1013.4 |
| 20260831094403 | 19 | 45 | 4.8 | 11.3 | 0.00 | 0.00 | 0.00 | 67 | 1013.2 |